Simultaneous Nadir Overpasses (SNOs) Predictions

Prediction of SNOs between GOES-16 and METOP-B Satellite Orbit:

Table of predicted SNOs for the next 14.0 days since TLE Epoch: 1/8/2022
Index Date Time (GOES-16) GOES-16 Lat,Lon METOP-B Lat,Lon Distance(km) Time Diff (sec)
1 01/09/2022 02:46:39 0.01, -75.18 -0.76, -78.54 383.84 80
2 01/10/2022 02:23:20 0.01, -75.18 0.38, -73.55 185.97 80
3 01/11/2022 14:44:50 -0.01, -75.21 0.65, -78.11 329.93 80
4 01/12/2022 14:21:30 -0.02, -75.22 -0.49, -73.12 240.20 80
5 01/14/2022 02:43:10 0.01, -75.22 -0.57, -77.70 283.89 80
6 01/15/2022 02:19:50 0.02, -75.23 0.57, -72.71 286.37 80
7 01/16/2022 14:41:21 -0.02, -75.27 0.45, -77.27 229.01 80
8 01/17/2022 14:18:01 -0.02, -75.28 -0.69, -72.28 341.64 80
9 01/19/2022 02:39:40 0.02, -75.28 -0.37, -76.87 181.59 80
10 01/20/2022 02:16:21 0.02, -75.30 0.78, -71.88 389.46 80
11 01/21/2022 14:37:51 0.00, -75.34 0.25, -76.44 124.51 80
